Regional Weather Roundup
Issued by NWS

Home | Current Version | Previous Version | Graphics & Text | Print | Product List | Glossary On
Versions: 1 2 3 4 5 6 7 8 9 10 11 12 13 14 15 16 17 18 19 20 21 22 23 24 25 26 27 28 29 30 31 32 33 34 35 36 37 38 39 40 41 42 43 44 45 46 47 48 49 50
000
ASUS45 KTFX 121004
RWRMT
MONTANA HOURLY WEATHER ROUNDUP
NATIONAL WEATHER SERVICE GREAT FALLS MT
404 AM MDT SAT JUL 12 2014

NOTE: "FAIR" INDICATES FEW OR NO CLOUDS BELOW 12000 FEET WITH NO
SIGNIFICANT WEATHER AND/OR OBSTRUCTIONS TO VISIBILITY.

* THESE STATIONS ARE NOT UNDER NWS QUALITY CONTROL. THEY DO NOT
   REPORT WEATHER SUCH AS PRECIPITATION OR FOG.

MTZ001>007-043-121100-
WEST OF THE DIVIDE
CITY           SKY/WX    TMP DP  RH WIND       PRES   REMARKS
KALISPELL      CLEAR     59  50  72 NW5       30.12R
MISSOULA       CLEAR     61  43  52 CALM      30.15R
BUTTE          PTCLDY    61  46  58 N3        30.27R
MULLAN PASS    CLEAR     63  41  45 SE7       30.28S
* ESSEX        N/A       57  48  72 S13        N/A
* LINCOLN      N/A       48  45  89 N2         N/A
* LOOKOUT PASS N/A       59  47  65 N/A        N/A
* POLSON       N/A       61  45  56 S1         N/A
* RONAN APT    CLEAR     52  48  86 N/A        N/A
* SEELEY LAKE  N/A       46  42  86 NE1        N/A
* THOMP F APT  CLEAR     58  47  67 N3         N/A
* YAAK HILL    N/A       59  49  70 S1         N/A
$$

MTZ008-052>055-121100-
SOUTHWEST MONTANA
CITY           SKY/WX    TMP DP  RH WIND       PRES   REMARKS
BOZEMAN        CLOUDY    61  57  87 SE12      30.19F
DILLON         PTCLDY    61  57  87 S3        30.24R
W YELLOWSTONE  CLOUDY    52  50  93 CALM      30.34R
* THREE FORKS  MOCLDY    63  39  41 N/A        N/A
* BOULDER HILL N/A       58  48  70 SW1        N/A
* MONIDA PASS  N/A       54  47  77 NW4        N/A
* RAYNOLDS PAS N/A       54  32  43 SE4        N/A
* WHITEHALL    N/A       63  55  75 N6G12      N/A
* WISE RIVER   N/A       56  51  83 SW3        N/A
$$

MTZ009>010-012-014-046-048-049-054-121100-
EAST SLOPES AND CENTRAL MONTANA
CITY           SKY/WX    TMP DP  RH WIND       PRES   REMARKS
CUT BANK       CLEAR     54  48  80 CALM      30.20R
GREAT FALLS    CLEAR     57  52  83 S7        30.18S
HELENA         MOCLDY    66  52  61 W6        30.20R
MALMSTROM AFB  CLEAR     59  52  78 S5        30.19S
* CONRAD       CLEAR     48  48 100 N/A        N/A
* DEARBORN     N/A       58  52  81 S3         N/A
* EAST GLACIER N/A       48  46  93 NW7        N/A
* MONARCH      N/A       50  47  89 N1         N/A
* ROGERS PASS  N/A       54  48  80 N1         N/A
* SAINT MARY   N/A       45  43  93 S2         N/A
* SWEET GRASS  N/A       58  53  84 SW11       N/A
$$

MTZ011-013-016-021-035-040-045-047-050-051-121100-
NORTH CENTRAL MONTANA
CITY           SKY/WX    TMP DP  RH WIND       PRES   REMARKS
HAVRE          CLEAR     52  52 100 W6        30.14R
* CHESTER      N/A       51  47  86 N2         N/A
* DENTON       N/A       51  50  96 SW4        N/A
* GEYSER       N/A       50  49  96 N/A        N/A
* JUDITH GAP   N/A       57  52  83 N/A        N/A
* LOMA         N/A       62  54  75 NE6        N/A
$$

MTZ017>020-022>027-061-062-121100-
NORTHEAST MONTANA
CITY           SKY/WX    TMP DP  RH WIND       PRES   REMARKS
GLASGOW        PTCLDY    59  54  84 CALM      30.12F
GLENDIVE       MOCLDY    61  50  67 NE8       30.13S
JORDAN         MOCLDY    64  52  65 CALM      30.13R
SIDNEY         MOCLDY    57  52  83 NW6       30.15R
WOLF POINT     PTCLDY    55  52  90 CALM      30.12S
* BEAVER HILL  N/A       60  56  87 SE6        N/A
* CIRCLE       N/A       61  55  81 NE2        N/A
* LINDSAY DVD  N/A       60  54  81 E6         N/A
* NAVAJO       N/A       56  49  77 NW4        N/A
$$

MTZ028>042-056>058-121100-
SOUTHCENTRAL AND SOUTHEAST MONTANA
CITY           SKY/WX    TMP DP  RH WIND       PRES   REMARKS
BAKER          CLOUDY    61  57  87 SE10      30.12F
LIVINGSTON     LGT RAIN  61  57  87 SE12      30.23F
MILES CITY     PTCLDY    61  59  93 N7        30.09S
* LAUREL APT   CLOUDY    63  50  63 SW5        N/A
* ROUNDUP APT  CLOUDY    61  48  62 N/A        N/A
* ALZADA       N/A       61  57  87 N/A        N/A
* HYSHAM       N/A       62  53  73 NW1        N/A
* LAME DEER    N/A       61  56  84 S4         N/A
* REED POINT   N/A       63  57  81 SW5G12     N/A
* ROSCOE HILL  N/A       58  51  78 W4         N/A
$$

REGIONAL REPORTS...DAKOTAS
CITY           SKY/WX    TMP DP  RH WIND       PRES   REMARKS
WILLISTON      PTCLDY    52  48  86 CALM      30.11S
DICKINSON      TSTM      61  57  87 N3        30.13R
CROSBY         N/A       52  52 100 SW7       30.10S
WATFORD CITY   FAIR      50  50 100 CALM      30.10R
BISMARCK       CLOUDY    64  55  73 NE5       30.08R
GRAND FORKS    PTCLDY    55  54  96 NW5       30.02S
FARGO          PTCLDY    61  55  81 CALM      30.03R
BUFFALO SD     MOCLDY    61  57  87 NW13      30.09R
RAPID CITY     PTCLDY    61  57  87 CALM      30.11R
$$

REGIONAL REPORTS...WYOMING/IDAHO/WASHINGTON
CITY           SKY/WX    TMP DP  RH WIND       PRES   REMARKS
GILLETTE       PTCLDY    57  55  93 S9        30.17S
SHERIDAN       MOCLDY    61  55  81 NW3       30.15R
CODY           PTCLDY    61  50  67 CALM      30.23R
YELLOWSTONE LA PTCLDY    46  45  96 CALM      30.43S
SALMON         PTCLDY    68  43  40 SE5       30.12R
MULLAN PASS    CLEAR     63  41  45 SE7       30.28S
SAND POINT     CLEAR     54  50  86 CALM      30.08R
SPOKANE        FAIR      64  45  50 W3        30.06R
$$

REGIONAL REPORTS...ALBERTA
CITY           SKY/WX    TMP DP  RH WIND       PRES   REMARKS
LETHBRIDGE     FOG       54  54 100 SE6       30.17S VSB 2

$$




USA.gov is the U.S. government's official web portal to all federal, state and local government web resources and services.